Regional Weather Roundup
Issued by NWS

Home | Current Version | Previous Version | Text Only | Print | Product List | Glossary Off
Versions: 1 2 3 4 5 6 7 8 9 10 11 12 13 14 15 16 17 18 19 20 21 22 23 24 25 26 27 28 29 30 31 32 33 34 35 36 37 38 39 40 41 42 43 44 45 46 47 48 49 50

000
ASUS43 KIND 261709
RWRIN

WEATHER ROUNDUP FOR INDIANA
NATIONAL WEATHER SERVICE INDIANAPOLIS IN
100 PM EDT THU MAR 26 2015

NOTE: "FAIR" INDICATES FEW OR NO CLOUDS BELOW 12,000 FEET WITH NO
SIGNIFICANT WEATHER AND/OR OBSTRUCTIONS TO VISIBILITY.

* - STATION DOES NOT REPORT WEATHER SUCH AS PRECIPITATION OR FOG.

+ - STATION NOT QUALITY CONTROLLED BY THE NATIONAL WEATHER SERVICE.
    USE DATA WITH CAUTION...ESPECIALLY DEWPOINT AND RELATIVE
    HUMIDITY OBSERVATIONS.

INZ001>003-010>013-019-020-261800-
NORTHWEST INDIANA

CITY           SKY/WX    TMP DP  RH WIND       PRES   REMARKS
GARY /AIRPORT/ PTSUNNY   41  23  48 N14       29.98F
KNOX *+          N/A     41  12  30 NW12      29.95S
LA PORTE +     PTSUNNY   41  27  56 NW13G21   29.96S
MICHIGAN CITY+ CLOUDY    37  21  52 NW10G18   29.98S
MONTICELLO +   CLOUDY    39  32  76 NW12      29.96S
RENSSELAER +   PTSUNNY   41  32  70 NW6       29.97F
VALPARAISO     PTSUNNY   39  25  57 N10       29.96F

$$

LMZ046-743>745-261800-
SOUTHERN LAKE MICHIGAN

STATION/POSITION TIME  TEMP WIND        PRES
                       AIR  DIR/SP/G
                 (UTC) (F)  (DEG/KT/KT) (MB)
BURNS HARBOR     1700   36  340/  9/ 11 1015.9S
MICHIGAN CITY    1700   35  290/ 10/ 12   N/A

$$

INZ004-005-014>016-021>024-261800-
NORTH CENTRAL INDIANA

CITY           SKY/WX    TMP DP  RH WIND       PRES   REMARKS
ELKHART        CLOUDY    39  21  48 W14G21    29.94
GOSHEN         CLOUDY    42  28  57 W13       29.92F
LOGANSPORT +   CLOUDY    37  32  81 NW7       29.95F
PERU/GRISSOM   CLOUDY    39  32  75 NW10      29.92F
ROCHESTER +    CLOUDY    41  32  70 NW12      29.94S
SOUTH BEND     CLOUDY    40  24  53 NW15G22   29.95F
WARSAW +       CLOUDY    37  30  75 NW10      29.93S

$$

INZ006>009-017-018-025>027-261800-
NORTHEAST INDIANA

CITY           SKY/WX    TMP DP  RH WIND       PRES   REMARKS
ANGOLA *+      CLOUDY    39  27  60 NW12      29.89S
AUBURN +       CLOUDY    39  32  75 NW9       29.91S
FORT WAYNE     CLOUDY    40  33  76 NW10      29.91F
HUNTINGTON +   CLOUDY    39  29  69 NW9       29.91F

$$

INZ028-029-035-036-043>045-051>053-261800-
WEST CENTRAL INDIANA

CITY           SKY/WX    TMP DP  RH WIND       PRES   REMARKS
CRAWFORDSVL +  CLOUDY    37  28  71 MISG      29.96F
GREENCASTLE +  CLOUDY    36  30  80 NW5       29.96F
LAFAYETTE      CLOUDY    39  32  76 NW13      29.97F
TERRE HAUTE    CLOUDY    40  33  76 NW13      29.98F

$$

INZ030>032-037>040-046>048-054>057-064-065-261800-
CENTRAL INDIANA

CITY           SKY/WX    TMP DP  RH WIND       PRES   REMARKS
CP ATTERBURY + CLOUDY    41  37  87 NW13      29.93F
COLUMBUS       CLOUDY    41  37  87 NW14      29.92F
FISHERS *+     CLOUDY    37  36  93 NW9       29.94S
FRANKFORT +    CLOUDY    38  35  89 W8        29.96F
GREENWOOD *+   CLOUDY    39  34  81 NW13      29.94F
INDIANAPOLIS   CLOUDY    39  34  82 NW10      29.93F
-EAGLE CREEK   CLOUDY    39  33  79 NW12      29.94S
KOKOMO *+        N/A     39  30  70 NW12      29.94S
MARION +       CLOUDY    37  35  93 N6        29.93S
MT COMFORT *+  CLOUDY    37  37 100 NW12      29.94R
SHELBYVILLE    CLOUDY    40  36  86 NW12      29.92R
ZIONSVILLE +   CLOUDY    39  31  75 NW10      29.95S

$$

INZ033-034-041-042-049-050-058-059-261800-
EAST CENTRAL INDIANA

CITY           SKY/WX    TMP DP  RH WIND       PRES   REMARKS
MUNCIE         CLOUDY    38  34  85 N12       29.91F

$$

INZ060-061-067>069-081>083-085>088-261800-
SOUTHWEST INDIANA

CITY           SKY/WX    TMP DP  RH WIND       PRES   REMARKS
EVANSVILLE     CLOUDY    42  38  85 NW12      29.99R
HUNTINGBURG *+ CLOUDY    43  37  81 NW12G17   29.96S
WASHINGTON +   CLOUDY    40  36  86 N13       29.97S

$$

INZ062-063-066-070>080-084-089>092-261800-
SOUTH CENTRAL AND SOUTHEAST INDIANA

CITY           SKY/WX    TMP DP  RH WIND       PRES   REMARKS
BEDFORD +      DRIZZLE   41  39  93 NW6       29.93F
BLOOMINGTON    CLOUDY    40  38  93 N6        29.94S
NORTH VERNON + DRIZZLE   43  43 100 N8        29.92F
SEYMOUR +      DRIZZLE   45  41  87 NW6       29.91F

$$



USA.gov is the U.S. government's official web portal to all federal, state and local government web resources and services.